• In Hungary
  • List of Countries
  • For 7 days
  • Water Temperature
  • Satellite Maps
  • Weather Map
  • News
  • Weather Widgets
  • user-avatar
    Login

    Hourly Weather Northallerton

    Today, 15 August, Wednesday

    Time Temperature Precipitation Wind Pressure Humidity
    00:00 +18°C° 0 mm 4 mps 756 mmHg 87%
    01:00 +17°C° 0 mm 5 mps 756 mmHg 87%
    02:00 +17°C° 0 mm 5 mps 756 mmHg 88%
    03:00 +17°C° 0 mm 5 mps 756 mmHg 89%
    04:00 +17°C° 0 mm 5 mps 756 mmHg 88%
    05:00 +17°C° 0 mm 5 mps 756 mmHg 88%
    06:00 +17°C° 0 mm 5 mps 756 mmHg 87%
    07:00 +17°C° 0 mm 5 mps 755 mmHg 85%
    08:00 +19°C° 0 mm 5 mps 755 mmHg 82%
    09:00 +20°C° 0 mm 6 mps 755 mmHg 80%
    10:00 +20°C° 0 mm 6 mps 755 mmHg 78%
    11:00 +21°C° 0 mm 6 mps 755 mmHg 76%
    12:00 +22°C° 0 mm 7 mps 755 mmHg 74%
    13:00 +21°C° 0.1 mm 7 mps 754 mmHg 76%
    14:00 +21°C° 0.1 mm 7 mps 754 mmHg 77%
    15:00 +21°C° 0.1 mm 7 mps 754 mmHg 79%
    16:00 +21°C° 0.5 mm 7 mps 753 mmHg 81%
    17:00 +20°C° 0.5 mm 7 mps 753 mmHg 83%
    18:00 +20°C° 0.5 mm 7 mps 753 mmHg 85%
    19:00 +20°C° 0.6 mm 6 mps 753 mmHg 86%
    20:00 +19°C° 0.6 mm 6 mps 753 mmHg 87%
    21:00 +19°C° 0.6 mm 6 mps 752 mmHg 89%
    22:00 +19°C° 0.2 mm 6 mps 752 mmHg 89%
    23:00 +17°C° 0.2 mm 5 mps 752 mmHg 89%

    Tomorrow, 16 August, Thursday

    Time Temperature Precipitation Wind Pressure Humidity
    00:00 +17°C° 0.2 mm 5 mps 752 mmHg 90%
    01:00 +17°C° 0.2 mm 5 mps 752 mmHg 90%
    02:00 +16°C° 0.2 mm 5 mps 752 mmHg 89%
    03:00 +15°C° 0.2 mm 5 mps 751 mmHg 89%
    04:00 +15°C° 0.1 mm 4 mps 752 mmHg 88%
    05:00 +14°C° 0.1 mm 4 mps 752 mmHg 87%
    06:00 +14°C° 0.1 mm 4 mps 752 mmHg 86%
    07:00 +14°C° 0 mm 5 mps 752 mmHg 80%
    08:00 +15°C° 0 mm 5 mps 752 mmHg 74%
    09:00 +15°C° 0 mm 6 mps 752 mmHg 68%
    10:00 +16°C° 0.1 mm 6 mps 752 mmHg 67%
    11:00 +17°C° 0.1 mm 7 mps 752 mmHg 65%
    12:00 +17°C° 0.1 mm 7 mps 752 mmHg 64%
    13:00 +17°C° 0.2 mm 7 mps 752 mmHg 64%
    14:00 +17°C° 0.2 mm 7 mps 753 mmHg 64%
    15:00 +17°C° 0.2 mm 7 mps 753 mmHg 64%
    16:00 +17°C° 0 mm 7 mps 753 mmHg 66%
    17:00 +16°C° 0 mm 6 mps 753 mmHg 68%
    18:00 +16°C° 0 mm 6 mps 754 mmHg 71%
    19:00 +15°C° 0 mm 5 mps 754 mmHg 75%
    20:00 +14°C° 0 mm 5 mps 755 mmHg 78%
    21:00 +13°C° 0 mm 4 mps 755 mmHg 82%
    22:00 +12°C° 0 mm 4 mps 755 mmHg 84%
    23:00 +12°C° 0 mm 4 mps 755 mmHg 85%

    Day after tomorrow, 17 August, Friday

    Time Temperature Precipitation Wind Pressure Humidity
    00:00 +12°C° 0 mm 4 mps 756 mmHg 87%
    01:00 +12°C° 0 mm 4 mps 756 mmHg 88%
    02:00 +11°C° 0 mm 3 mps 756 mmHg 88%
    03:00 +11°C° 0 mm 3 mps 756 mmHg 89%
    04:00 +11°C° 0 mm 4 mps 756 mmHg 88%
    05:00 +11°C° 0 mm 4 mps 757 mmHg 87%
    06:00 +11°C° 0 mm 4 mps 757 mmHg 86%
    07:00 +13°C° 0 mm 4 mps 757 mmHg 80%
    08:00 +14°C° 0 mm 5 mps 757 mmHg 73%
    09:00 +15°C° 0 mm 6 mps 758 mmHg 67%
    10:00 +15°C° 0 mm 6 mps 758 mmHg 66%
    11:00 +16°C° 0 mm 7 mps 758 mmHg 65%
    12:00 +17°C° 0 mm 7 mps 758 mmHg 64%
    13:00 +17°C° 0 mm 7 mps 757 mmHg 66%
    14:00 +17°C° 0 mm 7 mps 757 mmHg 69%
    15:00 +17°C° 0 mm 7 mps 757 mmHg 71%
    16:00 +16°C° 0.1 mm 7 mps 757 mmHg 74%
    17:00 +16°C° 0.1 mm 7 mps 756 mmHg 77%
    18:00 +16°C° 0.1 mm 6 mps 756 mmHg 80%
    19:00 +16°C° 0.1 mm 7 mps 756 mmHg 82%
    20:00 +16°C° 0.1 mm 7 mps 756 mmHg 83%
    21:00 +16°C° 0.1 mm 7 mps 756 mmHg 85%
    22:00 +16°C° 0.1 mm 7 mps 756 mmHg 85%
    23:00 +16°C° 0.1 mm 7 mps 756 mmHg 86%

    18 August, Saturday

    Time Temperature Precipitation Wind Pressure Humidity
    00:00 +17°C° 0.1 mm 7 mps 756 mmHg 86%
    01:00 +17°C° 0.1 mm 7 mps 756 mmHg 86%
    02:00 +16°C° 0.1 mm 7 mps 755 mmHg 86%
    03:00 +16°C° 0.1 mm 7 mps 755 mmHg 85%
    04:00 +16°C° 0 mm 7 mps 756 mmHg 85%
    05:00 +16°C° 0 mm 7 mps 756 mmHg 85%
    06:00 +16°C° 0 mm 7 mps 756 mmHg 85%
    07:00 +16°C° 0 mm 6 mps 757 mmHg 84%
    08:00 +16°C° 0 mm 6 mps 757 mmHg 83%
    09:00 +17°C° 0 mm 6 mps 757 mmHg 82%
    10:00 +17°C° 0.1 mm 6 mps 758 mmHg 82%
    11:00 +17°C° 0.1 mm 6 mps 758 mmHg 81%
    12:00 +17°C° 0.1 mm 6 mps 758 mmHg 81%
    13:00 +17°C° 0.1 mm 6 mps 759 mmHg 79%
    14:00 +19°C° 0.1 mm 6 mps 759 mmHg 78%
    15:00 +19°C° 0.1 mm 6 mps 759 mmHg 77%
    16:00 +19°C° 0 mm 5 mps 759 mmHg 78%
    17:00 +18°C° 0 mm 4 mps 760 mmHg 79%
    18:00 +18°C° 0 mm 4 mps 760 mmHg 81%
    19:00 +17°C° 0 mm 3 mps 760 mmHg 84%
    20:00 +17°C° 0 mm 2 mps 761 mmHg 87%
    21:00 +16°C° 0 mm 1 mps 761 mmHg 90%
    22:00 +16°C° 0.1 mm 1 mps 761 mmHg 90%
    23:00 +16°C° 0.1 mm 1 mps 761 mmHg 91%

    19 August, Sunday

    Time Temperature Precipitation Wind Pressure Humidity
    00:00 +16°C° 0.1 mm 1 mps 761 mmHg 91%
    01:00 +16°C° 0.3 mm 1 mps 761 mmHg 91%
    02:00 +16°C° 0.3 mm 1 mps 761 mmHg 92%
    03:00 +16°C° 0.3 mm 1 mps 761 mmHg 92%
    04:00 +16°C° 0.4 mm 2 mps 760 mmHg 92%
    05:00 +16°C° 0.4 mm 2 mps 760 mmHg 93%
    06:00 +17°C° 0.4 mm 2 mps 760 mmHg 93%
    07:00 +17°C° 0.5 mm 3 mps 759 mmHg 93%
    08:00 +18°C° 0.5 mm 3 mps 759 mmHg 92%
    09:00 +18°C° 0.5 mm 4 mps 759 mmHg 92%
    10:00 +19°C° 0.2 mm 4 mps 759 mmHg 91%
    11:00 +19°C° 0.2 mm 4 mps 759 mmHg 90%
    12:00 +20°C° 0.2 mm 4 mps 759 mmHg 90%
    13:00 +20°C° 0.1 mm 4 mps 758 mmHg 89%
    14:00 +20°C° 0.1 mm 4 mps 758 mmHg 88%
    15:00 +20°C° 0.1 mm 4 mps 758 mmHg 88%
    16:00 +20°C° 0.1 mm 4 mps 758 mmHg 89%
    17:00 +19°C° 0.1 mm 4 mps 758 mmHg 90%
    18:00 +19°C° 0.1 mm 4 mps 758 mmHg 91%
    19:00 +19°C° 0 mm 4 mps 758 mmHg 92%
    20:00 +18°C° 0 mm 3 mps 759 mmHg 93%
    21:00 +18°C° 0 mm 3 mps 759 mmHg 94%
    22:00 +18°C° 0 mm 3 mps 759 mmHg 94%
    23:00 +18°C° 0 mm 3 mps 759 mmHg 94%

    20 August, Monday

    Time Temperature Precipitation Wind Pressure Humidity
    00:00 +18°C° 0 mm 3 mps 759 mmHg 95%
    01:00 +18°C° 0 mm 3 mps 759 mmHg 94%
    02:00 +18°C° 0 mm 3 mps 759 mmHg 94%
    03:00 +18°C° 0 mm 3 mps 759 mmHg 94%
    04:00 +18°C° 0 mm 3 mps 759 mmHg 94%
    05:00 +18°C° 0 mm 4 mps 759 mmHg 94%
    06:00 +18°C° 0 mm 4 mps 759 mmHg 93%
    07:00 +19°C° 0 mm 4 mps 759 mmHg 89%
    08:00 +20°C° 0 mm 4 mps 760 mmHg 84%
    09:00 +20°C° 0 mm 5 mps 760 mmHg 80%
    10:00 +21°C° 0 mm 5 mps 760 mmHg 77%
    11:00 +22°C° 0 mm 5 mps 760 mmHg 74%
    12:00 +22°C° 0 mm 5 mps 760 mmHg 71%
    13:00 +22°C° 0 mm 5 mps 760 mmHg 71%
    14:00 +22°C° 0 mm 6 mps 760 mmHg 72%
    15:00 +21°C° 0 mm 6 mps 760 mmHg 72%
    16:00 +21°C° 0 mm 5 mps 760 mmHg 74%
    17:00 +20°C° 0 mm 5 mps 760 mmHg 76%
    18:00 +20°C° 0 mm 5 mps 760 mmHg 77%
    19:00 +19°C° 0 mm 4 mps 760 mmHg 81%
    20:00 +18°C° 0 mm 4 mps 760 mmHg 85%
    21:00 +17°C° 0 mm 3 mps 760 mmHg 89%
    22:00 +17°C° 0 mm 3 mps 760 mmHg 90%
    23:00 +17°C° 0 mm 3 mps 760 mmHg 91%
    Show more